Location: الشقيري
(17.1356°N, 42.8272°E)
Time: 04:07:40
(UTC+00:00)

N. Korean satellite - Pass Details

Date: 20 November 2019
Orbit: 455 x 506 km, 97.2° (Epoch: 10 December)

Event Time Altitude Azimuth Distance (km) Brightness Sun altitude
Rises 02:40:44 0° 13° (NNE) 2,575 10.2 -8.7°
Reaches altitude 10° 02:42:50 10° 15° (NNE) 1,685 9.3 -8.2°
Maximum altitude 02:46:27 73° 101° (E) 510 6.9 -7.4°
Drops below altitude 10° 02:50:00 10° 186° (S) 1,652 9.4 -6.6°
Sets 02:52:02 0° 188° (S) 2,520 10.3 -6.2°
